Content
SEND FEEDBACK

Daily
Averages
Monthly
Summary
United States of America

DEDEDO, GUAM


Home > North America > United States > Guam
Elevation: 111 meters     Latitude: 13 33N     Longitude: 144 49E

WEATHER
 
SELECT A DAY
Number of Records: 209,133;   Date Range: 1/1/95 - 8/28/14
 
SHARE

PRINT THIS DATA

[ ← Previous Day ]
WEATHER ALMANAC - 24 APRIL, 2013
[ Next Day → ]
[ °F ]   °C
Weather ElementAverageHighLow
Temperature29.6 °C32.2 °C (11:54 am)26.7 °C (5:54 am)
Dewpoint22.6 °C23.9 °C (4:54 am)20.6 °C (2:54 pm)
Humidity66.5 %82 % (4:54 am)50 % (2:54 pm)
Barometer1012.2 hPa1014.6 hPa (11:29 am)1010.5 hPa (4:54 am)
Wind Speed21.4 km/h35.2 km/h (9:54 am)
Wind Gust44.4 km/h (9:54 am)
Weather ElementAverage
Visibility16.1 km
Wind DirectionENE (74.6 °)

Weather ElementTotal
Precipitation---
Cooling Degree Days11.2 (Base 18.3)
Growing Degree Days19.5 (Base 10)
Averaged from 24 records on 24 April, 2013
WEATHER CONDITIONS BREAKOUT
WIND DIRECTION BREAKOUT
WEATHER BY HOUR - 24 APRIL, 2013
[ °F ]   °C
Local TimeTemperatureDewpointHumidityBarometerVisibilityWind DirectionWind SpeedGust SpeedPrecipitationEventsConditions
1:54 AM27.8 °C21.7 °C69 %1012.5 hPa16.1 kmENE (60°)14.8 km/hClear
2:54 AM27.8 °C22.2 °C71 %1011.2 hPa16.1 kmNE (50°)13 km/hPartly Cloudy
3:54 AM27.2 °C22.8 °C77 %1010.8 hPa16.1 kmNE (50°)9.3 km/hScattered Clouds
4:54 AM27.2 °C23.9 °C82 %1010.5 hPa16.1 kmENE (60°)11.1 km/h0 mmMostly Cloudy
5:54 AM26.7 °C23.3 °C81 %1010.8 hPa16.1 kmENE (60°)14.8 km/hScattered Clouds
6:54 AM27.8 °C23.3 °C76 %1011.5 hPa16.1 kmENE (60°)14.8 km/hScattered Clouds
7:54 AM27.2 °C22.8 °C77 %1012.5 hPa16.1 kmEast (90°)20.4 km/h40.7 km/h0 mmScattered Clouds
8:54 AM30 °C22.2 °C63 %1012.5 hPa16.1 kmEast (80°)24.1 km/h40.7 km/hPartly Cloudy
9:54 AM30.6 °C21.7 °C59 %1014.2 hPa16.1 kmEast (80°)35.2 km/h44.4 km/hPartly Cloudy
10:54 AM31.7 °C22.8 °C59 %1013.9 hPa16.1 kmEast (90°)24.1 km/h42.6 km/hScattered Clouds
11:29 AM32 °C23 °C59 %1014.6 hPa16.1 kmEast (100°)27.8 km/h38.9 km/hMostly Cloudy
11:54 AM32.2 °C22.2 °C55 %1013.5 hPa16.1 kmEast (80°)29.6 km/h42.6 km/hScattered Clouds
12:54 PM32.2 °C22.2 °C55 %1012.2 hPa16.1 kmEast (80°)31.5 km/h0 mmPartly Cloudy
1:54 PM32.2 °C22.2 °C55 %1011.5 hPa16.1 kmEast (80°)33.3 km/h42.6 km/hPartly Cloudy
2:54 PM32.2 °C20.6 °C50 %1011.2 hPa16.1 kmENE (70°)27.8 km/h40.7 km/hPartly Cloudy
3:54 PM31.7 °C22.2 °C57 %1011.2 hPa16.1 kmEast (90°)24.1 km/hPartly Cloudy
4:54 PM31.1 °C22.2 °C59 %1010.8 hPa16.1 kmEast (90°)22.2 km/h37 km/hPartly Cloudy
5:54 PM30 °C22.2 °C63 %1010.8 hPa16.1 kmEast (80°)22.2 km/hPartly Cloudy
6:54 PM29.4 °C22.8 °C67 %1011.2 hPa16.1 kmENE (70°)22.2 km/hScattered Clouds
7:54 PM28.9 °C22.8 °C69 %1011.9 hPa16.1 kmEast (80°)18.5 km/hClear
8:54 PM28.9 °C23.3 °C72 %1012.2 hPa16.1 kmENE (70°)20.4 km/hClear
9:54 PM28.9 °C22.8 °C69 %1012.9 hPa16.1 kmEast (80°)22.2 km/hPartly Cloudy
10:54 PM28.3 °C23.3 °C74 %1012.5 hPa16.1 kmENE (70°)18.5 km/hClear
11:54 PM28.3 °C23.9 °C77 %1012.2 hPa16.1 kmENE (70°)11.1 km/hMostly Cloudy
Hourly data recorded from PGUM, located 0 kilometers away from Dededo, Guam







STORIES FROM OUR PARTNERS